Tracking 22879 objects as of 21-Apr-2021
HD Live streaming from Space Station
objects crossing your sky now

COSMOS 2091

Track COSMOS 2091 now!
10-day predictions
COSMOS 2091 is classified as:


NORAD ID: 20736
Int'l Code: 1990-070B
Perigee: 1,416.3 km
Apogee: 1,423.2 km
Inclination: 82.6 °
Period: 114.1 minutes
Semi major axis: 7790 km
RCS: 1.144 m2 (large)
Launch date: August 8, 1990
Source: Commonwealth of Independent States (former USSR) (CIS)
Launch site: PLESETSK MISSILE AND SPACE COMPLEX (PKMTR)
aabbcc
Your satellite tracking list
Your tracking list is empty




NASA's NSSDC Master Catalog

Two Line Element Set (TLE):
1 20736U 90070B   21110.91399606  .00000033  00000-0  12273-3 0  9996
2 20736  82.5744  90.4036 0004437  65.5299 352.9526 12.62497516414662
Source of the keplerian elements: AFSPC